| time (UTC) | temp F | wind direction | speed MPH | gust MPH | rain 1hr in | rain 24hr in | rain mn in | humidity % | barometer mb |
| 20260507012308 | 58 | 30 | 4.0 | 5.0 | 0.00 | 1.26 | 1.26 | 99 | 4248.9 |
| 20260507011308 | 58 | 43 | 3.0 | 5.0 | 0.00 | 1.26 | 1.26 | 99 | 4249.1 |
| 20260507010303 | 57 | 40 | 3.0 | 3.0 | 0.00 | 1.26 | 1.26 | 99 | 4249.0 |
| 20260507005305 | 58 | 348 | 5.0 | 6.0 | 0.00 | 1.26 | 1.26 | 99 | 4249.2 |
| 20260507004303 | 58 | 47 | 5.0 | 7.0 | 0.00 | 1.26 | 1.26 | 99 | 4248.9 |
| 20260507003301 | 58 | 26 | 2.0 | 3.0 | 0.00 | 1.26 | 1.26 | 99 | 4249.1 |
| 20260507002259 | 57 | 39 | 1.0 | 2.0 | 0.00 | 1.26 | 1.26 | 99 | 4249.3 |
| 20260507001254 | 57 | 42 | 2.0 | 2.0 | 0.00 | 1.26 | 1.26 | 99 | 4249.5 |
| 20260507000251 | 57 | 45 | 4.0 | 5.0 | 0.00 | 1.26 | 1.26 | 99 | 4249.8 |
| 20260506235250 | 57 | 3 | 5.0 | 6.0 | 0.00 | 1.26 | 1.26 | 99 | 4249.8 |
| 20260506234244 | 57 | 21 | 5.0 | 6.0 | 0.00 | 1.26 | 1.26 | 99 | 4249.7 |
| 20260506233244 | 57 | 59 | 1.0 | 2.0 | 0.00 | 1.26 | 1.26 | 99 | 4249.5 |
| 20260506232241 | 57 | 41 | 1.0 | 1.0 | 0.00 | 1.26 | 1.26 | 99 | 4248.7 |
| 20260506231237 | 57 | 58 | 2.0 | 2.0 | 0.00 | 1.26 | 1.26 | 99 | 4249.1 |
| 20260506230236 | 57 | 57 | 5.0 | 6.0 | 0.00 | 1.26 | 1.26 | 99 | 4248.9 |
| 20260506225236 | 57 | 16 | 1.0 | 1.0 | 0.00 | 1.26 | 1.26 | 99 | 4249.3 |
| 20260506224236 | 57 | 43 | 2.0 | 2.0 | 0.00 | 1.26 | 1.26 | 99 | 4249.0 |
| 20260506223233 | 57 | 356 | 7.0 | 8.0 | 0.31 | 1.26 | 1.26 | 99 | 4249.5 |
| 20260506222232 | 58 | 5 | 15.0 | 16.0 | 0.12 | 1.21 | 1.21 | 99 | 4250.3 |
| 20260506221228 | 58 | 13 | 8.0 | 9.0 | 0.00 | 1.19 | 1.19 | 99 | 4249.8 |
| 20260506220225 | 58 | 19 | 10.0 | 11.0 | 0.00 | 1.19 | 1.19 | 99 | 4249.7 |
| 20260506215224 | 59 | 349 | 9.0 | 11.0 | 0.00 | 1.19 | 1.19 | 99 | 4249.8 |
| 20260506214224 | 59 | 14 | 8.0 | 10.0 | 0.00 | 1.19 | 1.19 | 99 | 4249.1 |
| 20260506213219 | 60 | 349 | 13.0 | 14.0 | 0.00 | 1.19 | 1.19 | 99 | 4248.7 |
| 20260506212217 | 60 | 351 | 13.0 | 15.0 | 0.05 | 1.19 | 1.19 | 99 | 4249.0 |
| 20260506211215 | 60 | 2 | 5.0 | 6.0 | 0.00 | 1.18 | 1.18 | 99 | 4249.0 |
| 20260506210215 | 60 | 322 | 7.0 | 8.0 | 0.00 | 1.18 | 1.18 | 99 | 4249.1 |
| 20260506205213 | 62 | 352 | 11.0 | 15.0 | 0.00 | 1.18 | 1.18 | 99 | 4249.0 |
| 20260506204208 | 62 | 350 | 9.0 | 10.0 | 0.00 | 1.18 | 1.18 | 99 | 4248.3 |
| 20260506203203 | 61 | 353 | 5.0 | 6.0 | 0.00 | 1.18 | 1.18 | 99 | 4248.3 |
| 20260506202202 | 61 | 345 | 7.0 | 8.0 | 0.00 | 1.18 | 1.18 | 99 | 4248.2 |
| 20260506201202 | 62 | 3 | 6.0 | 7.0 | 0.00 | 1.18 | 1.18 | 99 | 4248.4 |
| 20260506200202 | 62 | 359 | 7.0 | 9.0 | 0.00 | 1.18 | 1.18 | 99 | 4248.3 |
| 20260506195200 | 62 | 356 | 7.0 | 8.0 | 0.00 | 1.18 | 1.18 | 99 | 4248.5 |
| 20260506194200 | 62 | 351 | 1.0 | 1.0 | 0.07 | 1.18 | 1.18 | 99 | 4248.6 |
| 20260506193201 | 62 | 350 | 0.0 | 1.0 | 0.00 | 1.17 | 1.17 | 99 | 4248.9 |
| 20260506192200 | 62 | 333 | 4.0 | 5.0 | 0.00 | 1.17 | 1.17 | 99 | 4249.0 |
| 20260506191158 | 62 | 351 | 3.0 | 3.0 | 0.00 | 1.17 | 1.17 | 99 | 4248.8 |
| 20260506190158 | 62 | 351 | 5.0 | 7.0 | 0.00 | 1.17 | 1.17 | 99 | 4248.9 |
| 20260506185157 | 62 | 311 | 9.0 | 11.0 | 0.00 | 1.17 | 1.17 | 99 | 4248.9 |
| 20260506184153 | 62 | 349 | 9.0 | 9.0 | 0.00 | 1.17 | 1.17 | 99 | 4248.5 |
| 20260506183151 | 63 | 7 | 7.0 | 8.0 | 0.05 | 1.17 | 1.17 | 99 | 4248.3 |
| 20260506182151 | 63 | 2 | 12.0 | 14.0 | 0.12 | 1.16 | 1.16 | 99 | 4248.6 |
| 20260506181146 | 64 | 344 | 8.0 | 9.0 | 0.14 | 1.14 | 1.14 | 99 | 4249.1 |
| 20260506180145 | 66 | 19 | 2.0 | 3.0 | 0.17 | 1.12 | 1.12 | 99 | 4249.0 |
| 20260506175144 | 66 | 209 | 1.0 | 1.0 | 0.19 | 1.09 | 1.09 | 99 | 4249.1 |
| 20260506174139 | 66 | 246 | 1.0 | 1.0 | 0.05 | 1.06 | 1.06 | 99 | 4248.8 |
| 20260506173139 | 66 | 318 | 0.0 | 0.0 | 0.00 | 1.05 | 1.05 | 99 | 4248.5 |
| 20260506172138 | 66 | 285 | 0.0 | 1.0 | 0.31 | 1.05 | 1.05 | 99 | 4248.4 |
| 20260506171134 | 66 | 59 | 1.0 | 1.0 | 0.78 | 1.00 | 1.00 | 99 | 4248.9 |
| 20260506170128 | 66 | 329 | 0.0 | 1.0 | 0.35 | 0.88 | 0.88 | 99 | 4249.5 |
| 20260506165127 | 65 | 19 | 1.0 | 2.0 | 0.05 | 0.82 | 0.82 | 99 | 4248.1 |
| 20260506164127 | 65 | 353 | 2.0 | 2.0 | 0.42 | 0.81 | 0.81 | 99 | 4248.6 |
| 20260506163123 | 66 | 343 | 2.0 | 3.0 | 0.28 | 0.75 | 0.75 | 99 | 4248.7 |
| 20260506162122 | 66 | 35 | 8.0 | 10.0 | 0.12 | 0.70 | 0.70 | 99 | 4248.9 |
| 20260506161121 | 66 | 355 | 5.0 | 6.0 | 0.31 | 0.68 | 0.68 | 99 | 4248.6 |
| 20260506160121 | 67 | 3 | 12.0 | 13.0 | 0.07 | 0.63 | 0.63 | 99 | 4248.5 |
| 20260506155116 | 68 | 273 | 1.0 | 1.0 | 0.05 | 0.62 | 0.62 | 99 | 4248.1 |
| 20260506152924 | 68 | 262 | 1.0 | 1.0 | 0.00 | 0.61 | 0.61 | 99 | 4248.1 |
| 20260506151920 | 67 | 262 | 0.0 | 0.0 | 0.00 | 0.61 | 0.61 | 99 | 4248.1 |
| 20260506150920 | 67 | 280 | 0.0 | 0.0 | 0.00 | 0.61 | 0.61 | 99 | 4248.3 |
| 20260506145919 | 67 | 245 | 0.0 | 1.0 | 0.00 | 0.61 | 0.61 | 99 | 4248.5 |
| 20260506144918 | 67 | 243 | 2.0 | 2.0 | 0.00 | 0.61 | 0.61 | 99 | 4248.4 |
| 20260506143913 | 67 | 85 | 2.0 | 3.0 | 0.00 | 0.61 | 0.61 | 99 | 4247.9 |
| 20260506142908 | 67 | 252 | 0.0 | 1.0 | 0.00 | 0.61 | 0.61 | 99 | 4247.7 |
| 20260506141904 | 67 | 27 | 1.0 | 1.0 | 0.00 | 0.61 | 0.61 | 99 | 4247.9 |
| 20260506140859 | 67 | 314 | 1.0 | 2.0 | 0.00 | 0.61 | 0.61 | 99 | 4247.9 |
| 20260506135859 | 66 | 339 | 1.0 | 1.0 | 0.00 | 0.61 | 0.61 | 99 | 4247.7 |
| 20260506134858 | 66 | 321 | 3.0 | 5.0 | 0.00 | 0.61 | 0.61 | 99 | 4247.9 |
| 20260506133857 | 66 | 233 | 2.0 | 5.0 | 0.07 | 0.61 | 0.61 | 99 | 4247.9 |
| 20260506132856 | 67 | 219 | 2.0 | 3.0 | 0.00 | 0.60 | 0.60 | 99 | 4247.6 |
| 20260506131851 | 67 | 55 | 1.0 | 1.0 | 0.00 | 0.60 | 0.60 | 99 | 4247.4 |
| 20260506130850 | 67 | 257 | 1.0 | 2.0 | 0.00 | 0.60 | 0.60 | 99 | 4247.4 |
| 20260506125850 | 66 | 187 | 2.0 | 3.0 | 0.00 | 0.60 | 0.60 | 99 | 4247.2 |
| 20260506124846 | 66 | 248 | 2.0 | 2.0 | 0.12 | 0.60 | 0.60 | 99 | 4247.0 |
| 20260506123846 | 66 | 292 | 1.0 | 1.0 | 0.19 | 0.59 | 0.59 | 99 | 4246.6 |
| 20260506122842 | 66 | 352 | 0.0 | 0.0 | 0.26 | 0.55 | 0.55 | 99 | 4247.9 |
| 20260506121843 | 66 | 201 | 1.0 | 1.0 | 0.12 | 0.51 | 0.51 | 99 | 4248.0 |
| 20260506120842 | 66 | 309 | 0.0 | 1.0 | 0.52 | 0.49 | 0.49 | 99 | 4247.8 |
| 20260506115837 | 67 | 348 | 0.0 | 1.0 | 2.22 | 0.41 | 0.41 | 99 | 4247.8 |
| 20260506114833 | 71 | 309 | 11.0 | 13.0 | 0.00 | 0.00 | 0.00 | 95 | 4247.8 |
| 20260506113829 | 71 | 292 | 3.0 | 3.0 | 0.00 | 0.00 | 0.00 | 93 | 4245.5 |
| 20260506112828 | 71 | 325 | 3.0 | 5.0 | 0.00 | 0.00 | 0.00 | 90 | 4245.5 |
| 20260506111823 | 72 | 160 | 3.0 | 5.0 | 0.00 | 0.00 | 0.00 | 90 | 4245.3 |
| 20260506110818 | 72 | 151 | 5.0 | 7.0 | 0.00 | 0.00 | 0.00 | 90 | 4245.2 |
| 20260506105818 | 72 | 67 | 2.0 | 2.0 | 0.00 | 0.00 | 0.00 | 89 | 4244.9 |
| 20260506104818 | 72 | 4 | 3.0 | 5.0 | 0.00 | 0.00 | 0.00 | 89 | 4245.1 |
| 20260506103813 | 72 | 259 | 2.0 | 5.0 | 0.00 | 0.00 | 0.00 | 89 | 4245.0 |
| 20260506102813 | 72 | 196 | 2.0 | 3.0 | 0.00 | 0.00 | 0.00 | 89 | 4245.0 |
| 20260506101808 | 72 | 197 | 4.0 | 5.0 | 0.00 | 0.00 | 0.00 | 89 | 4245.1 |
| 20260506100807 | 72 | 342 | 1.0 | 2.0 | 0.00 | 0.00 | 0.00 | 89 | 4245.3 |
| 20260506095803 | 72 | 274 | 2.0 | 2.0 | 0.00 | 0.00 | 0.00 | 89 | 4245.1 |
| 20260506094803 | 71 | 253 | 3.0 | 5.0 | 0.00 | 0.00 | 0.00 | 89 | 4245.0 |
| 20260506093759 | 72 | 255 | 3.0 | 6.0 | 0.00 | 0.00 | 0.00 | 88 | 4245.0 |
| 20260506092754 | 72 | 251 | 2.0 | 2.0 | 0.00 | 0.00 | 0.00 | 88 | 4244.8 |
| 20260506091754 | 72 | 38 | 1.0 | 1.0 | 0.00 | 0.00 | 0.00 | 87 | 4244.7 |
| 20260506090750 | 72 | 238 | 2.0 | 2.0 | 0.00 | 0.00 | 0.00 | 87 | 4244.7 |
| 20260506085749 | 72 | 235 | 2.0 | 2.0 | 0.00 | 0.00 | 0.00 | 87 | 4244.6 |
| 20260506084748 | 72 | 33 | 1.0 | 1.0 | 0.00 | 0.00 | 0.00 | 86 | 4244.5 |
| 20260506083747 | 72 | 74 | 1.0 | 1.0 | 0.00 | 0.00 | 0.00 | 86 | 4244.8 |
| 20260506082742 | 72 | 246 | 0.0 | 2.0 | 0.00 | 0.00 | 0.00 | 85 | 4244.7 |
| 20260506081741 | 72 | 204 | 5.0 | 7.0 | 0.00 | 0.00 | 0.00 | 85 | 4244.6 |
| 20260506080736 | 72 | 48 | 1.0 | 2.0 | 0.00 | 0.00 | 0.00 | 84 | 4245.0 |
| 20260506072731 | 72 | 50 | 2.0 | 3.0 | 0.00 | 0.00 | 0.00 | 83 | 4244.5 |
| 20260506071726 | 72 | 276 | 5.0 | 7.0 | 0.00 | 0.00 | 0.00 | 83 | 4244.5 |
| 20260506070726 | 72 | 253 | 2.0 | 2.0 | 0.00 | 0.00 | 0.00 | 82 | 4244.7 |
| 20260506061714 | 72 | 227 | 2.0 | 3.0 | 0.00 | 0.00 | 0.00 | 81 | 4244.5 |
| 20260506060710 | 72 | 206 | 2.0 | 3.0 | 0.00 | 0.00 | 0.00 | 81 | 4244.7 |
| 20260506050700 | 73 | 127 | 2.0 | 2.0 | 0.00 | 0.00 | 0.00 | 78 | 4245.6 |
| 20260506044654 | 73 | 347 | 3.0 | 5.0 | 0.00 | 0.00 | 0.00 | 78 | 4245.5 |
| 20260506043654 | 73 | 329 | 3.0 | 5.0 | 0.00 | 0.00 | 0.00 | 78 | 4245.4 |
| 20260506042651 | 72 | 348 | 1.0 | 1.0 | 0.00 | 0.00 | 0.00 | 78 | 4245.8 |
| 20260506041652 | 72 | 200 | 3.0 | 5.0 | 0.00 | 0.00 | 0.00 | 78 | 4245.7 |
| 20260506040647 | 72 | 337 | 1.0 | 1.0 | 0.00 | 0.00 | 0.00 | 77 | 4246.0 |
| 20260506035641 | 72 | 303 | 1.0 | 2.0 | 0.00 | 0.00 | 0.00 | 77 | 4246.1 |
| 20260506034640 | 72 | 189 | 2.0 | 3.0 | 0.00 | 0.00 | 0.00 | 77 | 4246.2 |
| 20260506033640 | 72 | 157 | 2.0 | 2.0 | 0.00 | 0.00 | 0.00 | 77 | 4246.1 |
| 20260506032640 | 72 | 244 | 3.0 | 3.0 | 0.00 | 0.00 | 0.00 | 77 | 4246.2 |
| 20260506031639 | 72 | 240 | 1.0 | 2.0 | 0.00 | 0.00 | 0.00 | 77 | 4246.1 |
| 20260506030635 | 71 | 252 | 1.0 | 2.0 | 0.00 | 0.00 | 0.00 | 77 | 4246.2 |
| 20260506025634 | 71 | 9 | 0.0 | 1.0 | 0.00 | 0.00 | 0.00 | 78 | 4245.9 |
| 20260506024634 | 71 | 232 | 1.0 | 2.0 | 0.00 | 0.00 | 0.00 | 78 | 4246.0 |
| 20260506023632 | 71 | 40 | 0.0 | 0.0 | 0.00 | 0.00 | 0.00 | 78 | 4245.8 |
| 20260506022632 | 71 | 10 | 0.0 | 1.0 | 0.00 | 0.00 | 0.00 | 78 | 4245.7 |
| 20260506021627 | 71 | 105 | 1.0 | 1.0 | 0.00 | 0.00 | 0.00 | 78 | 4245.7 |
| 20260506020627 | 71 | 314 | 0.0 | 0.0 | 0.00 | 0.00 | 0.00 | 78 | 4245.9 |
| 20260506015622 | 71 | 257 | 0.0 | 1.0 | 0.00 | 0.00 | 0.00 | 78 | 4245.8 |
| 20260506014617 | 71 | 50 | 1.0 | 1.0 | 0.00 | 0.00 | 0.00 | 77 | 4245.3 |
| 20260506013616 | 71 | 356 | 1.0 | 1.0 | 0.00 | 0.00 | 0.00 | 77 | 4245.0 |
| 20260506012615 | 71 | 65 | 1.0 | 2.0 | 0.00 | 0.00 | 0.00 | 77 | 4245.4 |